User: anonymous   Login
Location: Unspecified
(0.0000°N, 0.0000°E)
Time: 19:47:38
(UTC+00:00)
Language:

Orbcomm F1 (FM01) - Orbit

View from above orbital plane
View from above orbital plane
View from above satellite
View from above satellite

Ground track
Ground track

The orbit data is extracted from the following two-line orbital elements,

1 23545U 95017A   17266.65616761 +.00000279 +00000-0 +57627-4 0  9990
2 23545 069.9686 102.1112 0006245 206.3529 153.7299 14.70837665196332
Epoch (UTC): 23 September 2017 15:44:52
Eccentricity: 0.0006245
inclination: 69.9686°
perigee height: 654 km
apogee height: 663 km
right ascension of ascending node: 102.1112°
argument of perigee: 206.3529°
revolutions per day: 14.70837665
mean anomaly at epoch: 153.7299°
orbit number at epoch: 19633

The dashed part of the orbit path shows where the satellite is in the earth's shadow,  

DLR